Gypsum, CO

9:37 PM MST on February 12, 2016 (GMT -0700)
Eagle County Regional

Weather History for KEGE - September, 2013

Change the Weather History Date:

Thursday, September 19, 2013

  Actual Average Record
Temperature  
Mean Temperature 56 °F -  
Max Temperature 69 °F 72 °F 89 °F (1956)
Min Temperature 44 °F 34 °F 21 °F (1949)
Degree Days  
Heating Degree Days 8    
Growing Degree Days 6 (Base 50)    
Moisture  
Dew Point 41 °F    
Average Humidity 72    
Maximum Humidity 100    
Minimum Humidity 16    
Precipitation  
Precipitation 0.01 in - - ()
Sea Level Pressure  
Sea Level Pressure 30.18 in    
Wind  
Wind Speed 3 mph (SSE)    
Max Wind Speed 23 mph    
Max Gust Speed 26 mph    
Visibility 10 miles    
Events      
Averages and records for this station are not official NWS values.
T = Trace of Precipitation, MM = Missing Value Source: NWS Daily Summary

Daily Weather History Graph

Daily Weather History Graph

Search for Another Location

Airport or City:

Trip Planner

Search our weather history database for the weather conditions in past years. The results will help you decide how hot, cold, wet, or windy it might be!

Date:

Astronomy

Sep. 19, 2013 Rise Set
Actual Time 6:52 AM MDT 7:09 PM MDT
Civil Twilight 6:25 AM MDT 7:36 PM MDT
Nautical Twilight 5:54 AM MDT 8:07 PM MDT
Astronomical Twilight 5:21 AM MDT 8:39 PM MDT
Moon 7:09 PM MDT (9/19) 7:04 AM MDT (9/19)
Length of Visible Light 13h 10m
Length of Day
12h 16m
Full, 100% of the Moon is Illuminated
Sep 19
Full
Sep 26
Last Quarter
Oct 4
New
Oct 11
First Quarter
Oct 18
Full

Hourly Weather History & Observations

Time (MDT) Temp. Windchill Dew Point Humidity Pressure Visibility Wind Dir Wind Speed Gust Speed Precip Events Conditions
12:15 AM 50.0 °F - 48.2 °F 94% 30.11 in 10.0 mi Calm Calm - N/A   Partly Cloudy
12:35 AM 51.8 °F - 48.2 °F 88% 30.11 in 10.0 mi South 4.6 mph - N/A   Scattered Clouds
12:55 AM 51.8 °F - 48.2 °F 88% 30.12 in 10.0 mi Calm Calm - N/A   Partly Cloudy
1:15 AM 50.0 °F - 48.2 °F 94% 30.12 in 10.0 mi North 3.5 mph - N/A   Mostly Cloudy
1:35 AM 48.2 °F - 46.4 °F 93% 30.13 in 10.0 mi Calm Calm - N/A   Scattered Clouds
1:55 AM 50.0 °F - 48.2 °F 94% 30.14 in 10.0 mi SSE 3.5 mph - N/A   Mostly Cloudy
2:15 AM 48.2 °F - 48.2 °F 100% 30.14 in 10.0 mi Calm Calm - N/A   Overcast
2:35 AM 48.2 °F - 48.2 °F 100% 30.14 in 10.0 mi East 3.5 mph - N/A   Overcast
2:55 AM 48.2 °F - 48.2 °F 100% 30.15 in 10.0 mi SSE 5.8 mph - N/A   Overcast
3:15 AM 48.2 °F - 48.2 °F 100% 30.15 in 10.0 mi East 3.5 mph - N/A   Mostly Cloudy
3:35 AM 48.2 °F - 48.2 °F 100% 30.16 in 10.0 mi Calm Calm - N/A   Mostly Cloudy
3:55 AM 48.2 °F - 48.2 °F 100% 30.16 in 10.0 mi East 4.6 mph - N/A   Overcast
4:15 AM 48.2 °F - 48.2 °F 100% 30.16 in 7.0 mi Calm Calm - 0.01 in   Overcast
4:35 AM 48.2 °F - 46.4 °F 93% 30.15 in 10.0 mi ENE 6.9 mph - 0.01 in   Scattered Clouds
4:55 AM 48.2 °F - 46.4 °F 93% 30.16 in 10.0 mi Calm Calm - 0.01 in   Mostly Cloudy
5:15 AM 48.2 °F - 46.4 °F 93% 30.15 in 10.0 mi ENE 5.8 mph - N/A   Scattered Clouds
5:35 AM 48.2 °F - 46.4 °F 93% 30.15 in 10.0 mi Calm Calm - N/A   Clear
5:55 AM 46.4 °F - 46.4 °F 100% 30.15 in 10.0 mi Calm Calm - N/A   Clear
6:15 AM 46.4 °F - 46.4 °F 100% 30.16 in 10.0 mi Calm Calm - N/A   Clear
6:35 AM 46.4 °F 44.3 °F 46.4 °F 100% 30.16 in 10.0 mi SSW 4.6 mph - N/A   Partly Cloudy
6:50 AM 46.4 °F - 46.4 °F 100% 30.17 in 10.0 mi Calm Calm - N/A   Partly Cloudy
7:50 AM 46.4 °F - 46.4 °F 100% 30.19 in 10.0 mi Calm Calm - N/A   Scattered Clouds
8:50 AM 48.2 °F - 46.4 °F 93% 30.20 in 10.0 mi Calm Calm - N/A   Mostly Cloudy
9:50 AM 53.6 °F - 48.2 °F 82% 30.21 in 10.0 mi Calm Calm - N/A   Scattered Clouds
10:55 AM 55.4 °F - 46.4 °F 72% 30.22 in 10.0 mi Variable 4.6 mph - N/A   Scattered Clouds
11:50 AM 59.0 °F - 44.6 °F 59% 30.21 in 10.0 mi Variable 5.8 mph - N/A   Scattered Clouds
12:50 PM 60.8 °F - 44.6 °F 55% 30.19 in 10.0 mi Calm Calm - N/A   Partly Cloudy
1:55 PM 66.2 °F - 37.4 °F 35% 30.16 in 10.0 mi SSW 8.1 mph - N/A   Partly Cloudy
2:50 PM 69.8 °F - 26.6 °F 20% 30.15 in 10.0 mi WSW 18.4 mph 24.2 mph N/A   Partly Cloudy
3:50 PM 69.8 °F - 21.2 °F 16% 30.14 in 10.0 mi SW 23.0 mph 26.5 mph N/A   Partly Cloudy
5:50 PM 68.0 °F - 21.2 °F 17% 30.15 in 10.0 mi WSW 18.4 mph 23.0 mph N/A   Partly Cloudy
6:50 PM 64.4 °F - 28.4 °F 26% 30.16 in 10.0 mi SW 5.8 mph - N/A   Clear
6:55 PM 64.4 °F - 26.6 °F 24% 30.16 in 10.0 mi SW 5.8 mph - N/A   Clear
7:15 PM 62.6 °F - 24.8 °F 24% 30.16 in 10.0 mi SSW 4.6 mph - N/A   Clear
7:35 PM 60.8 °F - 28.4 °F 29% 30.17 in 10.0 mi NW 4.6 mph - N/A   Clear
7:55 PM 55.4 °F - 33.8 °F 44% 30.18 in 10.0 mi WSW 6.9 mph - N/A   Clear
8:15 PM 55.4 °F - 35.6 °F 47% 30.20 in 10.0 mi Calm Calm - N/A   Clear
8:35 PM 53.6 °F - 33.8 °F 47% 30.21 in 10.0 mi ESE 4.6 mph - N/A   Clear
8:55 PM 53.6 °F - 35.6 °F 51% 30.22 in 10.0 mi East 5.8 mph - N/A   Clear
9:15 PM 51.8 °F - 35.6 °F 54% 30.23 in 10.0 mi Calm Calm - N/A   Clear
9:35 PM 51.8 °F - 37.4 °F 58% 30.24 in 10.0 mi ESE 3.5 mph - N/A   Clear
9:55 PM 48.2 °F - 35.6 °F 62% 30.25 in 10.0 mi SE 3.5 mph - N/A   Clear
10:15 PM 48.2 °F - 35.6 °F 62% 30.25 in 10.0 mi ESE 4.6 mph - N/A   Clear
10:35 PM 48.2 °F - 35.6 °F 62% 30.26 in 10.0 mi Calm Calm - N/A   Clear
11:15 PM 46.4 °F 44.3 °F 37.4 °F 71% 30.27 in 10.0 mi ESE 4.6 mph - N/A   Clear
11:35 PM 44.6 °F - 37.4 °F 76% 30.27 in 10.0 mi Calm Calm - N/A   Clear
11:55 PM 44.6 °F - 35.6 °F 71% 30.28 in 10.0 mi Calm Calm - N/A   Clear